Location: Aubervilles
(48.9167°N, 2.3833°E)
Time: 09:46:20
(UTC+00:00)

Cosmos 1633 - Pass Details

Date: 03 February 2023
Orbit: 423 x 432 km, 82.5° (Epoch: 28 March)

Event Time Altitude Azimuth Distance (km) Brightness Sun altitude
Rises 17:41:54 0° 155° (SSE) 2,373 6.0 -8.7°
Reaches altitude 10° 17:44:17 10° 137° (SE) 1,512 4.8 -9.1°
Maximum altitude 17:46:44 20° 89° (E) 1,063 3.7 -9.5°
Drops below altitude 10° 17:49:11 10° 41° (NE) 1,524 4.6 -9.9°
Enters shadow 17:49:15 10° 40° (NE) 1,546 4.6 -9.9°
